| time (UTC) | temp C | wind direction | speed KPH | gust KPH | rain 1hr cm | rain 24hr cm | rain mn cm | humidity % | barometer mb |
| 20260505211505 | 19 | 257 | 27.4 | 45.1 | 0.00 | 0.66 | 0.00 | 32 | 987.3 |
| 20260505210005 | 20 | 241 | 40.2 | 62.8 | 0.00 | 0.66 | 0.00 | 37 | 987.2 |
| 20260505204504 | 19 | 261 | 38.6 | 62.8 | 0.00 | 0.66 | 0.00 | 30 | 986.4 |
| 20260505203005 | 20 | 272 | 38.6 | 53.1 | 0.00 | 0.66 | 0.00 | 32 | 986.2 |
| 20260505201504 | 20 | 244 | 43.5 | 78.9 | 0.00 | 0.66 | 0.00 | 40 | 986.6 |
| 20260505200004 | 19 | 223 | 46.7 | 64.4 | 0.00 | 0.66 | 0.00 | 31 | 985.6 |
| 20260505194504 | 19 | 185 | 40.2 | 61.2 | 0.00 | 0.66 | 0.00 | 34 | 985.6 |
| 20260505193004 | 18 | 143 | 37.0 | 53.1 | 0.00 | 0.66 | 0.00 | 30 | 985.2 |
| 20260505191504 | 18 | 116 | 27.4 | 46.7 | 0.00 | 0.66 | 0.00 | 31 | 985.2 |
| 20260505190004 | 17 | 121 | 19.3 | 40.2 | 0.00 | 0.66 | 0.00 | 21 | 984.4 |
| 20260505184504 | 18 | 134 | 17.7 | 37.0 | 0.00 | 0.66 | 0.00 | 29 | 984.7 |
| 20260505183004 | 17 | 172 | 16.1 | 35.4 | 0.00 | 0.66 | 0.00 | 29 | 984.4 |
| 20260505181504 | 18 | 175 | 25.7 | 48.3 | 0.00 | 0.66 | 0.00 | 38 | 984.6 |
| 20260505180004 | 17 | 124 | 37.0 | 48.3 | 0.00 | 0.66 | 0.00 | 38 | 984.2 |
| 20260505174504 | 16 | 137 | 11.3 | 27.4 | 0.00 | 0.66 | 0.00 | 32 | 984.0 |
| 20260505173004 | 16 | 216 | 29.0 | 48.3 | 0.00 | 0.66 | 0.00 | 34 | 983.7 |
| 20260505171504 | 16 | 203 | 14.5 | 33.8 | 0.00 | 0.66 | 0.00 | 38 | 983.9 |
| 20260505170004 | 15 | 229 | 24.1 | 49.9 | 0.00 | 0.66 | 0.00 | 43 | 984.1 |
| 20260505164503 | 15 | 196 | 30.6 | 41.8 | 0.00 | 0.66 | 0.00 | 44 | 983.8 |
| 20260505163024 | 13 | 247 | 12.9 | 32.2 | 0.00 | 0.66 | 0.00 | 42 | 983.9 |
| 20260505161504 | 14 | 248 | 38.6 | 54.7 | 0.00 | 0.66 | 0.00 | 54 | 984.0 |
| 20260505153004 | 11 | 206 | 14.5 | 25.7 | 0.00 | 0.66 | 0.00 | 51 | 984.2 |
| 20260505151524 | 11 | 194 | 29.0 | 40.2 | 0.00 | 0.66 | 0.00 | 58 | 984.4 |
| 20260505041503 | 5 | 133 | 6.4 | 17.7 | 0.00 | 0.66 | 0.66 | 68 | 1010.1 |
| 20260505040004 | 6 | 126 | 19.3 | 29.0 | 0.00 | 0.66 | 0.66 | 75 | 1011.0 |
| 20260505034503 | 7 | 192 | 11.3 | 25.7 | 0.00 | 0.66 | 0.66 | 75 | 1012.0 |
| 20260505033024 | 7 | 138 | 8.0 | 16.1 | 0.00 | 0.66 | 0.66 | 67 | 1012.2 |
| 20260505031503 | 7 | 105 | 6.4 | 17.7 | 0.00 | 0.66 | 0.66 | 65 | 1012.8 |
| 20260505030004 | 8 | 172 | 17.7 | 30.6 | 0.00 | 0.66 | 0.66 | 64 | 1013.1 |
| 20260505024504 | 8 | 178 | 16.1 | 25.7 | 0.00 | 0.66 | 0.66 | 58 | 1013.2 |
| 20260505023004 | 8 | 74 | 4.8 | 11.3 | 0.00 | 0.66 | 0.66 | 53 | 1013.7 |
| 20260505021504 | 10 | 197 | 14.5 | 22.5 | 0.00 | 0.66 | 0.66 | 57 | 1014.4 |
| 20260505020004 | 11 | 140 | 22.5 | 40.2 | 0.00 | 0.66 | 0.66 | 55 | 1014.6 |
| 20260505014504 | 11 | 101 | 3.2 | 20.9 | 0.00 | 0.66 | 0.66 | 50 | 1015.3 |
| 20260505013003 | 12 | 200 | 25.7 | 40.2 | 0.00 | 0.66 | 0.66 | 50 | 1015.1 |
| 20260505011503 | 12 | 200 | 19.3 | 33.8 | 0.00 | 0.66 | 0.66 | 44 | 1015.4 |
| 20260505010024 | 12 | 153 | 14.5 | 29.0 | 0.00 | 0.66 | 0.66 | 42 | 1015.8 |
| 20260505004503 | 14 | 125 | 25.7 | 41.8 | 0.15 | 0.66 | 0.66 | 48 | 1016.2 |
| 20260505003004 | 15 | 141 | 30.6 | 41.8 | 0.18 | 0.66 | 0.66 | 49 | 1016.7 |
| 20260505001507 | 14 | 63 | 8.0 | 24.1 | 0.25 | 0.66 | 0.66 | 35 | 1016.3 |
| 20260505000004 | 16 | 148 | 30.6 | 45.1 | 0.36 | 0.66 | 0.66 | 44 | 1017.1 |
| 20260504234504 | 15 | 124 | 3.2 | 22.5 | 0.23 | 0.51 | 0.51 | 34 | 1017.1 |
| 20260504233025 | 16 | 77 | 22.5 | 37.0 | 0.36 | 0.48 | 0.51 | 35 | 1017.0 |
| 20260504231504 | 17 | 182 | 19.3 | 38.6 | 0.38 | 0.41 | 0.41 | 36 | 1017.4 |
| 20260504230005 | 16 | 208 | 4.8 | 32.2 | 0.33 | 0.30 | 0.30 | 25 | 1017.1 |
| 20260504224504 | 17 | 127 | 30.6 | 49.9 | 0.28 | 0.51 | 0.30 | 34 | 1017.3 |
| 20260504223004 | 18 | 139 | 32.2 | 59.5 | 0.15 | 0.58 | 0.15 | 34 | 1017.6 |
| 20260504221504 | 17 | 153 | 17.7 | 40.2 | 0.03 | 0.58 | 0.03 | 25 | 1017.4 |
| 20260504220004 | 18 | 160 | 16.1 | 38.6 | 0.00 | 0.69 | 0.00 | 30 | 1017.8 |
| 20260504214503 | 19 | 208 | 19.3 | 45.1 | 0.00 | 0.86 | 0.00 | 32 | 1017.9 |
| 20260504213004 | 18 | 186 | 37.0 | 61.2 | 0.00 | 1.09 | 0.00 | 29 | 1017.5 |